Location: Unspecified
(0.0000°N, 0.0000°E)
Time: 02:14:19
(UTC+00:00)

SR - All Passes

Search period start: 19 December 2014 00:00
Search period end: 29 December 2014 00:00
Orbit: 579 x 884 km, 66.7° (Epoch: 18 December)

Date Brightness Start Highest point End Pass type
(mag) Time Alt. Az. Time Alt. Az. Time Alt. Az.
19 Dec - 10:15:00 10° N 10:19:08 51° ENE 10:23:13 10° SSE daylight
19 Dec - 21:02:26 10° ESE 21:03:43 11° ESE 21:05:01 10° E night (unlit)
19 Dec - 22:39:55 10° SSW 22:45:41 59° WNW 22:51:29 10° N night (unlit)
20 Dec - 09:27:49 10° NNE 09:30:39 17° ENE 09:33:27 10° ESE daylight
20 Dec - 11:09:44 10° WNW 11:12:27 17° WSW 11:15:10 10° SSW daylight
20 Dec - 21:51:25 10° S 21:57:11 61° ESE 22:03:00 10° NNE visible
20 Dec - 23:38:09 10° W 23:39:11 10° WNW 23:40:13 10° WNW night (unlit)
21 Dec - 10:19:53 10° NW 10:23:59 49° WSW 10:28:03 10° S daylight
21 Dec - 21:03:52 10° SSE 21:08:41 26° ESE 21:13:32 10° NE visible
21 Dec - 22:45:51 10° SW 22:50:38 26° WNW 22:55:25 10° NNW night (unlit)
22 Dec - 09:31:24 10° N 09:35:31 51° ENE 09:39:36 10° SSE daylight
22 Dec - 20:18:47 10° SE 20:20:09 11° ESE 20:21:31 10° E visible
22 Dec - 21:56:20 10° SSW 22:02:07 59° WNW 22:07:55 10° N visible
23 Dec - 08:44:12 10° NNE 08:47:02 17° ENE 08:49:50 10° ESE daylight
23 Dec - 10:26:08 10° WNW 10:28:50 17° WSW 10:31:32 10° SSW daylight
23 Dec - 21:07:49 10° S 21:13:37 61° ESE 21:19:26 10° NNE visible
23 Dec - 22:54:38 10° W 22:55:36 10° WNW 22:56:34 10° WNW night (unlit)
24 Dec - 09:36:16 10° NW 09:40:21 48° WSW 09:44:26 10° S daylight
24 Dec - 20:20:16 10° SSE 20:25:06 27° ESE 20:29:57 10° NE visible
24 Dec - 22:02:16 10° SW 22:07:03 26° WNW 22:11:49 10° NNW visible
25 Dec - 08:47:46 10° N 08:51:53 51° ENE 08:55:58 10° SSE daylight
25 Dec - 19:35:07 10° SE 19:36:33 11° ESE 19:37:59 10° E visible
25 Dec - 21:12:44 10° SSW 21:18:31 59° WNW 21:24:19 10° N visible
26 Dec - 08:00:34 10° NNE 08:03:23 17° ENE 08:06:12 10° ESE daylight
26 Dec - 09:42:30 10° WNW 09:45:11 17° WSW 09:47:53 10° SSW daylight
26 Dec - 20:24:13 10° S 20:30:01 61° ESE 20:35:50 10° NNE visible
26 Dec - 22:11:06 10° WNW 22:12:00 10° WNW 22:12:54 10° WNW visible
27 Dec - 08:52:37 10° NW 08:56:41 48° WSW 09:00:46 10° S daylight
27 Dec - 19:36:38 10° SSE 19:41:29 27° ESE 19:46:21 10° NE visible
27 Dec - 21:18:39 10° SW 21:23:26 26° WNW 21:28:12 10° NNW visible
28 Dec - 08:04:06 10° N 08:08:13 51° ENE 08:12:19 10° SSE daylight
28 Dec - 18:51:27 10° SE 18:52:55 11° ESE 18:54:24 10° E visible
28 Dec - 20:29:07 10° SSW 20:34:54 59° WNW 20:40:41 10° N visible
